Location: Chevoux
(46.3801°N, 4.9476°E)
Time: 12:06:26
(UTC+00:00)

Explorer 7 - All Passes

Search period start: 13 May 2021 00:00
Search period end: 23 May 2021 00:00
Orbit: 484 x 677 km, 50.3° (Epoch: 13 May)

Date Brightness Start Highest point End Pass type
(mag) Time Alt. Az. Time Alt. Az. Time Alt. Az.
13 May - 10:35:00 10° SSW 10:38:29 34° SE 10:41:54 10° ENE daylight
13 May - 12:15:01 10° W 12:18:46 65° NNW 12:22:30 10° ENE daylight
13 May - 13:55:56 10° WNW 13:59:33 45° N 14:03:13 10° ENE daylight
13 May - 15:36:27 10° WNW 15:40:14 88° NNE 15:44:09 10° ESE daylight
13 May - 17:17:19 10° W 17:20:21 22° SW 17:23:29 10° SSE daylight
14 May - 10:39:04 10° SW 10:42:47 51° SSE 10:46:27 10° ENE daylight
14 May - 12:19:33 10° W 12:23:14 53° NNW 12:26:56 10° ENE daylight
14 May - 14:00:25 10° WNW 14:04:04 48° N 14:07:46 10° E daylight
14 May - 15:40:53 10° WNW 15:44:38 67° SSW 15:48:30 10° SE daylight
14 May - 17:22:25 10° WSW 17:24:33 14° SW 17:26:43 10° S daylight
15 May - 09:04:42 10° S 09:07:10 16° SE 09:09:37 10° E daylight
15 May - 10:43:19 10° WSW 10:47:08 75° SSE 10:50:54 10° ENE daylight
15 May - 12:24:06 10° W 12:27:45 47° N 12:31:24 10° ENE daylight
15 May - 14:04:52 10° WNW 14:08:34 57° NNE 14:12:19 10° E daylight
15 May - 15:45:22 10° WNW 15:48:59 45° SSW 15:52:42 10° SE daylight
16 May - 09:08:09 10° SSW 09:11:23 25° SE 09:14:32 10° E daylight
16 May - 10:47:42 10° WSW 10:51:33 80° NNW 10:55:19 10° ENE daylight
16 May - 12:28:38 10° WNW 12:32:16 44° N 12:35:54 10° ENE daylight
16 May - 14:09:17 10° WNW 14:13:02 71° NNE 14:16:50 10° ESE daylight
16 May - 15:49:57 10° W 15:53:16 29° SW 15:56:40 10° SSE daylight
17 May - 09:12:00 10° SW 09:15:39 38° SE 09:19:12 10° ENE daylight
17 May - 10:52:12 10° W 10:56:00 62° NNW 10:59:44 10° ENE daylight
17 May - 12:33:09 10° WNW 12:36:48 45° N 12:40:26 10° E daylight
17 May - 14:13:41 10° WNW 14:17:27 86° SSW 14:21:17 10° ESE daylight
17 May - 15:54:44 10° W 15:57:30 19° SW 16:00:19 10° S daylight
18 May - 07:38:36 10° SSE 07:40:07 12° SE 07:41:37 10° ESE daylight
18 May - 09:16:07 10° SW 09:19:59 57° SSE 09:23:42 10° ENE daylight
18 May - 10:56:44 10° W 11:00:29 51° N 11:04:10 10° ENE daylight
18 May - 12:37:37 10° WNW 12:41:18 50° N 12:44:59 10° E daylight
18 May - 14:18:07 10° WNW 14:21:50 60° SSW 14:25:35 10° SE daylight
18 May - 16:00:05 10° WSW 16:01:41 12° SW 16:03:16 10° SSW daylight
19 May - 07:41:26 10° S 07:44:18 19° SE 07:47:04 10° E daylight
19 May - 09:20:25 10° WSW 09:24:20 82° SSE 09:28:08 10° ENE daylight
19 May - 11:01:17 10° W 11:04:59 46° N 11:08:37 10° ENE daylight
19 May - 12:42:04 10° WNW 12:45:48 59° NNE 12:49:31 10° E daylight
19 May - 14:22:37 10° WNW 14:26:09 40° SW 14:29:44 10° SE daylight
20 May - 07:45:01 10° SSW 07:48:31 29° SE 07:51:53 10° E daylight
20 May - 09:24:49 10° WSW 09:28:45 75° NNW 09:32:33 10° ENE daylight
20 May - 11:05:49 10° WNW 11:09:30 44° N 11:13:07 10° ENE daylight
20 May - 12:46:28 10° WNW 12:50:14 76° NNE 12:54:01 10° ESE daylight
20 May - 14:27:14 10° W 14:30:24 26° SW 14:33:37 10° SSE daylight
21 May - 07:48:58 10° SW 07:52:47 43° SSE 07:56:28 10° ENE daylight
21 May - 09:29:19 10° W 09:33:12 59° NNW 09:36:57 10° ENE daylight
21 May - 11:10:19 10° WNW 11:14:01 46° N 11:17:39 10° E daylight
21 May - 12:50:53 10° WNW 12:54:39 79° SSW 12:58:24 10° ESE daylight
21 May - 14:32:07 10° W 14:34:37 17° SW 14:37:08 10° S daylight
22 May - 06:15:01 10° SSE 06:17:12 14° SE 06:19:20 10° ESE daylight
22 May - 07:53:07 10° SW 07:57:07 63° SSE 08:00:57 10° ENE daylight
22 May - 09:33:51 10° W 09:37:41 50° N 09:41:23 10° ENE daylight
22 May - 11:14:46 10° WNW 11:18:31 52° N 11:22:11 10° E daylight
22 May - 12:55:19 10° WNW 12:59:00 54° SSW 13:02:40 10° SE daylight
22 May - 14:38:00 10° WSW 14:38:45 10° SW 14:39:31 10° SW daylight
